Find Starlink 5327

NORAD ID: 55291 Int'l Des: 2023-010 Owner: SPXS Country: US Constellation: starlink operational
LEOCIRCULAR

Live Position

Loading 3D Globe...

About Starlink 5327

Description loading...

Upcoming Passes

Passes for default location (London). Set your location on the main map for personalized predictions.

Altitude History

Loading altitude history...

Two-Line Element Set

1 55291U 23010Y 26103.79111964 -.00000149 00000-0 -47119-5 0 9991
2 55291 69.9979 296.0852 0002591 269.6438 90.4425 14.98330536178529
Epoch: Apr 13, 2026 • Age: 14 hours

Current Status

Altitude 585.2 km
Velocity 7.57 km/s
Sub-Earth Point -38.91°S, 63.28°W
Launch Date Jan 19, 2023
Age 3.2 years
Type internet

Technical Details

Classification Payload
Mass 305.00 kg
Dry Mass 290.00 kg
Total Mass 305.00 kg
Length 0.20 m
Diameter 2.80 m
Span 9.00 m
Shape Box + pan
Manufacturer SPXS
Bus Type Starlink
Phase Status In Orbit
Owner/State SPXS/US

Most Searched